Theta_e
317 319 318 316 302 301 296 297 305 303 305 309 310 311 311 312 310 306 323 334 335 340 341 345 347 347 344 342 340 338 336 332 330 329 328 327 326 327 327 328 329 331 335 338 339 342 344 344 344
318 314 317 310 297 293 295 299 299 305 308 311 311 311 310 309 315 318 325 330 338 340 339 341 340 343 341 338 335 332 329 328 327 324 323 323 323 324 325 325 326 326 328 330 333 336 340 339 339
315 313 306 302 297 293 296 300 303 305 309 310 309 313 311 310 316 319 326 333 339 339 338 338 339 340 337 334 331 328 326 324 322 321 321 321 322 323 324 324 325 325 326 327 328 329 332 335 334
313 311 307 298 294 298 299 302 303 307 310 311 311 308 313 317 317 319 329 335 338 337 336 336 338 336 334 330 328 325 323 320 318 319 319 320 320 320 320 321 322 323 323 325 325 326 327 328 330
308 305 296 295 295 299 301 301 302 304 307 310 311 307 310 315 318 321 331 334 336 336 337 336 335 334 331 327 325 322 319 316 316 317 317 318 318 318 319 320 321 322 322 323 323 323 324 324 325
304 303 293 292 294 297 300 302 302 304 307 307 308 308 310 315 318 323 331 335 336 334 334 332 328 330 329 325 321 317 315 314 314 315 316 316 316 316 318 318 318 319 320 321 321 322 322 322 323
301 299 293 294 295 296 300 302 303 304 305 306 310 306 310 312 317 325 330 333 332 331 329 329 328 325 323 322 320 316 314 313 314 315 315 315 315 315 316 315 315 316 317 318 318 319 319 320 321
306 302 295 296 294 295 301 303 304 303 303 307 309 305 307 313 318 324 326 328 327 326 325 325 324 321 319 317 317 316 314 313 313 313 312 312 312 312 314 314 314 316 317 316 316 316 317 317 318
306 297 294 295 297 299 303 302 303 306 305 305 306 306 309 313 318 320 321 321 321 320 321 321 318 317 316 316 312 313 311 309 308 310 310 313 315 315 315 314 314 315 316 316 316 317 315 315 316
303 296 295 300 302 301 301 302 302 302 302 305 306 309 310 312 315 317 318 318 318 318 318 318 316 314 314 310 312 312 311 313 312 314 314 315 315 315 313 313 312 313 313 315 315 316 315 315 315
301 296 299 300 302 302 301 301 302 302 302 305 306 307 309 311 313 315 317 318 318 319 318 315 314 314 313 311 312 313 313 313 314 314 315 315 315 315 315 315 315 316 313 315 314 314 315 316 317
297 300 300 300 301 301 300 302 301 301 304 307 307 307 308 310 311 312 314 316 316 316 316 316 314 312 312 311 311 312 312 314 314 315 315 315 315 314 313 313 314 315 314 315 315 316 318 318 318
299 299 300 302 300 300 300 301 301 302 306 307 307 305 306 308 310 313 314 316 315 314 315 315 313 312 310 310 310 311 313 314 315 315 315 315 314 313 312 313 314 314 314 314 316 318 316 319 319
301 301 300 301 301 301 299 301 300 304 305 305 305 307 307 307 308 310 312 313 313 314 314 315 312 311 310 309 309 311 313 314 315 316 315 314 314 314 313 312 313 313 313 315 316 320 319 321 321
301 297 300 301 300 300 300 300 299 306 305 304 305 306 307 308 308 308 312 312 314 314 314 313 311 310 308 308 310 312 314 314 315 315 314 314 314 314 314 313 312 312 314 316 320 320 317 317 315
297 298 294 298 299 299 299 297 303 303 304 305 307 308 308 310 309 310 310 312 313 314 312 312 308 308 308 309 311 313 314 315 315 315 315 314 314 314 312 312 312 313 314 318 319 317 314 312 312
295 293 293 296 299 299 297 298 302 303 305 305 308 309 308 308 309 309 310 309 312 313 312 310 309 307 308 309 311 312 312 314 314 315 315 313 312 313 313 312 313 315 313 318 316 314 316 312 312
292 291 294 295 297 298 298 298 303 305 304 304 306 307 305 305 305 305 306 307 309 311 311 310 308 307 309 310 311 313 313 315 315 315 314 312 312 311 313 313 314 318 316 315 315 313 315 316 315
293 293 293 295 296 296 296 296 300 304 304 303 302 303 303 303 304 304 304 305 307 309 308 307 306 308 309 309 310 311 312 313 314 312 311 311 311 311 312 314 313 317 316 314 315 313 314 313 317
293 291 292 295 296 296 296 296 300 300 299 300 300 300 301 303 303 302 303 304 305 306 307 306 307 308 309 310 311 312 313 313 312 312 311 311 311 312 311 313 315 316 315 315 314 314 314 316 317
293 291 291 291 294 295 294 298 298 298 299 299 298 300 300 300 300 301 301 302 304 305 306 306 307 308 308 308 310 311 312 313 311 311 310 311 310 311 312 314 316 316 316 313 314 314 315 315 315
289 294 293 291 293 292 294 294 293 296 297 295 295 297 299 299 300 300 300 301 303 304 306 307 307 307 308 308 309 309 311 309 310 311 310 311 310 311 313 314 315 317 316 314 314 314 314 316 313
291 294 294 293 292 292 291 292 296 294 293 291 293 294 296 298 298 297 298 300 302 305 306 307 307 307 308 308 309 311 309 310 310 309 309 310 311 312 312 314 314 315 317 315 316 316 315 313 312
294 293 292 292 291 287 288 289 294 288 286 289 291 292 293 295 297 298 298 301 302 304 306 307 306 306 307 307 308 309 309 308 307 309 310 311 312 313 313 315 317 317 316 316 315 315 314 314 311
292 291 286 285 285 286 285 286 290 286 288 288 288 290 291 293 295 296 298 300 302 303 304 304 305 305 306 306 307 307 308 308 307 309 310 310 312 313 314 316 316 316 316 316 317 317 316 316 312
291 291 288 282 281 284 285 284 288 288 289 289 289 290 290 290 292 294 296 298 300 301 303 304 304 304 305 306 306 307 307 310 310 310 311 312 313 315 316 316 315 316 316 316 316 317 317 316 314
291 288 290 283 279 283 287 287 286 289 288 287 287 288 287 288 290 290 292 293 295 297 299 301 302 303 304 304 306 306 307 307 309 309 309 312 313 314 315 317 316 314 315 316 316 316 316 315 310
292 293 286 287 279 278 282 283 286 286 284 285 284 285 286 287 287 288 289 290 291 292 294 296 297 299 302 303 305 305 306 307 308 309 308 309 310 311 314 314 314 313 313 315 315 315 315 314 311
288 287 287 289 285 279 278 283 286 284 284 284 284 285 285 286 286 287 288 288 289 290 290 292 293 294 295 297 302 303 305 306 306 307 308 309 308 309 311 312 314 312 313 314 314 315 314 311 311
289 289 289 284 280 282 282 283 285 285 284 284 283 284 285 285 286 287 287 287 287 287 288 289 290 291 292 295 297 301 303 304 305 306 307 308 309 310 309 311 312 312 312 312 312 313 313 313 312
Wind_Speed
3 2 1 3 4 3 4 4 2 5 4 2 3 2 1 4 2 4 2 6 6 13 12 11 12 12 11 11 8 6 6 6 6 6 6 6 7 7 8 9 10 11 11 12 12 14 13 13 12
2 2 1 1 4 4 3 2 7 4 2 4 3 3 4 1 0 3 6 6 11 13 12 9 10 11 11 9 8 6 5 6 6 6 6 6 6 7 8 9 10 11 12 12 12 13 14 12 12
2 2 3 3 3 5 1 3 1 1 4 5 5 3 0 2 2 2 3 11 13 12 11 8 10 11 9 9 8 7 6 6 6 6 5 6 6 7 8 9 10 12 12 13 13 13 13 13 11
3 3 3 5 7 5 2 3 1 2 3 3 2 3 3 3 1 3 7 11 13 12 10 9 10 11 9 9 8 7 6 6 5 5 5 5 6 7 8 9 10 11 12 12 13 14 14 13 13
1 1 3 4 6 3 5 5 3 1 1 3 2 2 1 3 1 4 10 12 13 12 11 11 9 9 10 8 7 7 6 5 5 5 5 5 6 7 8 9 10 11 12 12 13 13 13 12 13
3 1 4 9 5 3 5 5 3 3 2 1 4 2 2 4 4 6 10 12 12 11 10 9 8 7 8 8 7 6 5 4 3 5 5 5 7 8 8 9 9 11 12 12 13 13 13 13 13
3 2 3 3 1 4 3 2 4 4 4 4 3 2 3 3 4 8 10 10 10 10 9 8 9 8 7 7 6 5 4 2 4 6 6 6 7 7 7 7 8 10 11 11 12 13 13 13 14
2 3 4 4 4 4 1 3 1 4 2 2 2 2 3 4 7 8 8 9 9 8 8 8 7 7 6 6 5 4 4 4 4 5 5 5 5 4 5 6 5 12 13 13 12 14 14 15 14
1 5 6 4 6 1 2 3 2 0 3 2 3 2 3 7 9 9 8 9 9 8 8 8 8 7 6 5 4 5 5 3 1 1 2 4 4 5 5 4 9 12 12 13 14 15 14 15 15
4 5 7 3 4 2 1 2 1 3 3 5 6 6 4 7 10 11 12 12 13 12 10 9 9 7 6 4 5 3 2 1 3 4 5 4 5 5 6 6 7 10 10 12 12 13 14 12 7
2 3 4 2 4 3 3 3 1 3 7 10 8 3 8 9 10 12 13 12 12 12 10 11 9 8 7 4 3 2 1 2 2 4 3 3 4 4 5 5 5 6 5 6 8 9 7 9 8
6 7 2 1 3 3 3 2 5 7 12 5 6 3 5 11 12 13 14 13 11 13 12 12 10 8 7 4 4 2 1 2 2 2 3 3 3 4 5 5 6 5 5 7 7 6 9 10 8
6 3 4 5 5 5 2 10 7 12 15 12 10 8 11 13 11 10 11 10 11 13 12 12 11 9 7 6 3 2 2 2 2 2 2 3 4 4 4 4 5 5 5 6 7 7 5 6 4
2 7 5 4 5 3 4 7 1 2 2 1 3 8 8 10 10 9 11 13 13 13 12 12 12 9 7 5 4 2 2 1 2 2 2 3 4 4 5 5 5 5 5 6 7 6 5 5 7
0 4 5 8 1 3 4 9 10 8 6 9 8 8 8 8 7 12 11 12 13 12 11 12 11 10 8 6 4 2 1 1 2 1 2 3 4 5 5 4 5 5 5 7 6 5 4 5 5
2 4 5 3 1 2 1 7 2 2 1 4 8 8 8 9 10 11 10 10 11 11 12 12 9 10 8 5 3 2 1 1 0 1 2 3 4 4 4 4 4 4 5 5 3 3 3 4 6
3 3 6 1 1 2 5 7 1 3 9 14 11 11 9 12 10 9 10 10 10 12 13 13 12 11 8 6 4 2 1 1 1 1 2 2 2 2 3 3 3 5 3 3 3 2 1 5 6
4 4 5 4 2 4 9 15 16 12 9 13 15 13 10 10 9 9 9 5 8 10 11 12 11 11 8 5 3 2 2 1 1 1 2 1 1 2 1 2 3 3 3 4 4 4 1 5 8
3 1 1 2 1 4 4 12 15 16 10 11 12 11 10 10 8 9 7 3 6 9 12 12 13 11 7 4 2 2 1 1 1 2 2 2 2 2 1 2 3 3 3 4 4 3 4 4 4
2 2 2 1 2 4 7 18 11 8 9 14 15 15 14 14 12 10 8 5 5 8 10 11 10 9 5 3 2 1 1 1 2 2 2 2 1 1 1 3 2 3 4 5 6 2 1 2 4
9 9 4 3 3 1 8 6 3 5 9 13 16 15 15 15 15 11 9 6 7 9 10 10 9 7 4 3 3 2 2 1 2 2 1 1 1 0 0 2 1 3 3 4 4 0 1 2 4
9 8 6 2 2 3 5 5 5 3 8 16 18 18 17 17 15 11 8 7 7 9 9 9 8 6 5 2 1 2 2 1 1 1 1 1 0 1 1 1 3 3 2 4 3 1 2 1 2
0 4 5 3 3 3 2 3 2 4 4 16 18 18 18 17 14 12 9 7 8 7 7 7 7 6 4 2 1 1 2 1 2 0 2 1 2 2 2 2 3 3 3 3 5 3 3 2 1
10 6 5 3 1 4 2 3 0 4 7 10 14 15 17 18 16 12 8 7 9 7 7 6 6 5 4 2 1 2 2 1 1 2 2 2 2 2 3 3 3 4 4 5 4 2 3 2 2
2 7 3 3 4 3 2 4 3 4 6 9 12 14 15 16 16 14 12 9 8 8 7 5 5 5 5 4 3 3 3 3 3 2 2 3 2 3 4 4 3 4 4 4 5 5 5 4 2
8 4 4 5 4 3 2 6 2 7 7 7 9 11 14 16 15 15 14 12 11 10 9 8 7 6 5 5 5 4 4 3 3 3 3 2 2 3 4 4 4 5 5 5 6 4 4 3 3
7 6 2 6 2 2 4 3 6 7 10 11 12 14 15 15 15 16 15 14 13 13 12 11 10 8 7 6 5 5 5 4 4 4 3 3 3 3 4 5 4 4 5 6 6 5 6 4 2
4 7 4 1 6 6 3 3 2 5 8 10 13 14 14 14 14 14 14 14 13 13 12 13 12 11 10 8 6 5 6 6 5 4 4 4 4 4 5 4 4 5 5 7 6 6 6 5 3
4 4 1 1 2 3 4 3 5 5 5 7 10 11 12 13 14 13 13 13 13 13 14 13 13 13 12 12 9 6 6 6 5 5 5 5 4 5 5 5 4 6 7 7 8 8 6 6 6
1 3 6 4 5 1 2 3 4 6 6 6 8 9 11 12 12 12 13 14 14 15 14 14 14 14 13 12 11 8 7 7 7 6 6 6 7 5 6 5 6 6 7 6 8 9 8 9 9
Wind_Direction
257 247 238 230 222 255 221 218 339 196 203 152 127 235 281 339 273 339 94 151 164 157 154 154 135 134 125 109 107 129 122 114 97 77 59 40 25 10 2 354 348 341 333 326 311 313 320 343 331
232 197 196 163 246 225 188 170 209 199 109 152 162 173 218 211 39 93 143 155 165 154 154 153 116 104 105 122 140 134 120 104 89 71 56 39 20 7 355 348 342 336 330 322 316 309 309 329 338
211 304 225 229 237 227 295 195 273 215 195 185 192 251 271 90 119 51 86 148 160 155 155 131 114 120 141 148 143 132 113 98 85 64 46 31 13 5 353 344 338 331 327 322 316 311 309 308 322
212 159 139 241 228 241 249 160 77 190 200 206 265 207 190 20 98 58 139 150 163 149 151 129 127 151 152 153 143 130 118 102 83 65 42 30 17 5 348 343 330 322 321 320 315 310 307 306 308
48 191 186 235 241 269 241 272 259 160 218 193 227 114 125 135 68 131 153 160 162 155 161 158 148 158 153 152 142 130 120 102 77 54 33 17 1 350 341 337 329 325 324 317 312 308 305 301 297
153 231 195 225 220 238 264 223 210 205 234 205 248 251 91 98 177 153 159 163 162 158 157 152 143 144 148 148 138 125 112 90 55 28 11 357 348 338 333 337 338 329 322 315 316 315 310 303 295
230 195 221 223 260 278 236 153 228 175 171 237 327 270 91 167 152 150 161 157 162 160 165 163 162 153 130 128 132 121 113 81 29 13 8 356 339 329 329 328 328 328 323 322 313 311 307 303 298
228 230 177 205 209 259 175 197 225 227 161 44 287 220 125 101 145 142 157 164 166 166 172 168 167 171 171 158 123 108 85 61 29 20 8 342 304 307 282 298 307 318 319 320 313 309 308 304 294
264 225 221 201 198 171 183 214 167 77 241 215 214 255 54 120 145 153 166 175 179 184 183 179 178 180 174 163 134 121 97 70 335 334 22 285 315 317 305 351 318 310 316 315 309 308 304 307 292
242 220 207 218 205 205 223 279 302 227 188 229 241 195 145 160 175 181 195 193 196 194 189 194 192 186 178 173 160 149 136 321 330 335 332 326 323 337 318 301 305 303 309 305 302 301 301 277 287
173 253 206 205 234 249 258 245 245 233 259 238 257 245 183 195 203 205 216 212 204 199 193 198 196 193 187 182 169 171 161 298 320 330 331 327 322 328 322 314 310 319 318 309 315 314 310 307 295
212 230 232 233 208 203 243 321 250 220 253 287 266 249 202 214 213 212 221 213 201 201 202 194 197 191 191 190 190 172 220 288 315 332 326 316 319 324 335 315 318 317 319 317 321 313 311 307 303
230 234 214 247 250 258 282 256 272 262 263 261 254 253 249 247 238 228 235 226 212 211 204 199 193 192 187 191 175 182 239 273 329 304 307 308 318 318 323 326 319 315 319 321 323 329 330 343 340
235 240 255 274 255 246 265 274 339 239 21 273 243 257 248 252 250 241 230 225 213 214 204 196 194 190 180 188 189 190 229 295 298 300 326 318 307 316 322 325 320 314 322 328 327 332 354 23 27
117 290 244 223 253 245 232 255 232 263 291 283 271 269 261 257 245 239 239 229 218 213 198 192 186 181 177 176 181 209 235 281 289 321 315 325 308 315 316 312 313 318 316 322 330 41 27 57 47
217 242 248 86 127 58 20 264 194 109 153 326 299 279 278 280 262 256 253 239 217 202 192 178 173 171 169 166 173 188 198 279 354 334 325 337 316 311 312 301 309 320 323 338 5 36 51 74 62
183 260 230 253 57 65 204 282 201 167 306 305 305 309 309 301 296 288 273 244 215 197 183 169 168 164 157 151 157 163 109 113 51 321 335 2 328 340 311 312 318 318 333 77 78 57 35 89 75
180 210 223 198 128 219 229 262 290 299 307 309 318 322 332 343 360 347 325 280 194 181 172 155 155 152 145 141 146 139 137 112 51 21 21 345 22 43 321 308 310 331 90 83 82 59 69 85 83
125 212 207 118 57 275 267 289 288 299 350 6 2 350 358 12 2 5 14 70 136 150 152 150 146 142 146 150 178 197 172 118 67 43 54 72 74 89 340 313 356 104 108 116 129 108 129 81 105
162 143 270 299 349 306 316 296 297 23 61 49 27 21 11 4 8 18 27 63 105 130 132 139 137 141 141 144 131 354 158 112 71 59 82 82 75 84 19 336 26 102 126 125 144 131 2 74 8
224 229 189 249 306 156 300 279 31 75 100 46 32 24 18 12 0 9 27 52 104 115 125 127 127 126 114 101 117 130 157 156 151 105 126 91 45 223 179 358 174 144 155 145 172 84 30 14 24
230 217 186 216 228 278 333 290 311 18 120 31 16 16 13 9 9 16 28 58 84 99 107 111 111 109 106 118 154 288 317 12 78 89 67 122 168 249 10 332 180 156 175 160 184 154 311 209 88
165 145 140 123 162 294 184 250 226 17 4 5 6 6 8 8 9 14 37 59 75 88 94 95 99 91 95 102 61 322 320 72 74 212 169 193 189 241 288 279 175 194 184 200 208 180 222 118 24
141 100 72 78 161 234 142 247 300 12 338 338 356 7 8 8 11 23 39 71 84 80 74 76 79 74 75 37 32 352 307 310 208 194 175 201 211 210 236 222 216 223 209 212 214 199 228 158 20
252 168 140 183 193 242 35 224 11 77 22 2 356 7 12 14 20 22 34 43 50 52 56 55 53 52 19 3 352 329 331 286 257 262 217 198 218 224 224 221 207 228 226 214 217 216 223 203 188
196 249 219 207 193 146 124 227 113 94 63 39 29 27 27 23 23 30 29 30 30 24 21 18 16 23 9 347 341 315 299 303 292 290 282 264 252 263 245 231 228 224 223 218 212 231 229 228 243
168 217 56 109 61 275 184 127 144 138 53 36 31 34 28 26 25 28 26 27 27 23 17 8 3 1 360 353 340 327 314 304 305 300 283 299 303 295 264 273 241 222 224 222 221 227 237 239 241
256 148 149 271 172 211 189 248 112 189 25 27 28 27 24 26 29 28 26 24 23 23 17 16 12 3 350 349 344 334 318 304 301 294 270 278 292 291 285 274 232 222 214 230 232 240 229 227 229
157 194 109 196 260 189 170 147 10 83 58 43 37 31 25 26 28 28 28 26 25 23 22 15 13 6 0 348 339 335 321 308 299 288 288 281 292 285 285 268 241 236 232 230 233 233 232 225 226
5 220 191 198 185 281 335 134 100 99 78 57 51 39 32 32 33 30 30 28 26 26 20 15 11 10 359 347 337 336 330 322 308 299 293 285 278 274 270 273 251 237 234 229 227 235 226 230 229